Location: Spaichingen
(48.0400°N, 8.4300°E)
Time: 16:41:59
(UTC+01:00)

Envisat - Visible Passes

Search period start: 18 March 2019 00:00
Search period end: 28 March 2019 00:00
Orbit: 764 x 766 km, 98.2° (Epoch: 18 March)

Date Brightness Start Highest point End Pass type
(mag) Time Alt. Az. Time Alt. Az. Time Alt. Az.
18 Mar 6.0 20:30:49 10° WSW 20:33:36 15° W 20:36:24 10° NW visible
19 Mar 5.1 19:52:01 10° SSW 19:56:26 30° W 20:00:54 10° NNW visible
20 Mar 3.7 19:14:28 10° S 19:19:29 61° W 19:24:33 10° NNW visible
21 Mar 5.8 20:18:48 10° SW 20:22:15 18° W 20:25:43 10° NW visible
22 Mar 4.7 19:40:28 10° SSW 19:45:09 37° W 19:49:51 10° NNW visible
23 Mar 3.3 19:03:11 10° S 19:08:15 76° WSW 19:13:22 10° NNW visible
23 Mar 6.3 20:47:12 10° W 20:48:09 10° W 20:49:06 10° WNW visible
24 Mar 5.5 20:06:58 10° SW 20:10:54 22° W 20:14:52 10° NW visible
25 Mar 4.3 19:29:01 10° S 19:33:52 45° W 19:38:45 10° NNW visible
26 Mar 6.0 20:34:20 10° WSW 20:36:46 13° W 20:39:13 10° WNW visible
27 Mar 5.2 19:55:16 10° SSW 19:59:35 27° W 20:03:55 10° NW visible
